Other Public Products
Issued by NWS Grand Forks, ND

Home | Current Version | Previous Version | Graphics & Text | Print | Product List | Glossary On
Versions: 1 2 3 4 5 6 7 8 9 10 11 12 13 14 15 16 17 18 19 20 21 22 23 24 25 26 27 28 29 30 31 32 33 34 35 36 37 38 39 40 41 42 43 44 45 46 47 48 49 50
000
FPUS83 KFGF 280331
OPUFGF
PRAIRIE TO PINES WEATHER ROUNDUP
NATIONAL WEATHER SERVICE EASTERN NORTH DAKOTA/GRAND FORKS ND
1000 PM CDT TUE JUN 27 2017

 **SATELLITE DATA USED TO AUGMENT SKY COVER AT AUTOMATED STATIONS**
 *****  WEATHER ACROSS EASTERN NORTH DAKOTA  *****

CITY           SKY/WX    TMP DP  RH WIND       PRES   REMARKS
GRAND FORKS    FAIR      70  49  47 SE15      29.61F
GRAND FORKS AF FAIR      68  48  48 SE14      29.61S
GRAND CITY NWS NOT AVBL
BUXTON         NOT AVBL
DEVILS LAKE    FAIR      69  56  62 SE13      29.56F
FARGO          CLOUDY    70  51  51 SE17      29.63F
WAHPETON ARPT  CLOUDY    68  45  42 SE10      29.67R
$$

 *****  WEATHER ACROSS CENTRAL AND WESTERN NORTH DAKOTA  *****

CITY           SKY/WX    TMP DP  RH WIND       PRES   REMARKS
JAMESTOWN      CLOUDY    73  52  47 SE15      29.57S
BISMARCK       FAIR      68  66  93 N10       29.53R
MINOT          FAIR      75  62  64 N3        29.52R
MINOT AFB      FAIR      76  59  56 N13       29.52R
GARRISON         N/A     69  65  86 SE10      29.51R
WILLISTON      FAIR      72  55  55 N8        29.61R
DICKINSON      CLOUDY    74  50  42 NW16      29.59R
HETTINGER      CLOUDY    74  49  41 NW7       29.62R
$$

 *****  OTHER OBSERVATIONS NORTHEAST NORTH DAKOTA  *****

CITY           SKY/WX    TMP DP  RH WIND       PRES   REMARKS
WALHALLA       NOT AVBL
LANGDON        FAIR      64  52  63 SE14      29.59F
CAVALIER       FAIR      70  48  46 SE13G18   29.59S
GRAFTON        FAIR      68  48  49 SE15      29.62S
CANDO          NOT AVBL
FORT TOTTEN      N/A     72  52  50 SE9       29.95S
ROLLA            N/A     68  54  60 SE9       29.58R
RUGBY          NOT AVBL
 ***** THE ABOVE OBSERVATIONS ARE NON NWS ARE NOT QUALITY
        CONTROLLED AND MAY MIS-REPORT RAIN FOR SNOW...
$$

 *****  OTHER OBSERVATIONS SOUTHEAST NORTH DAKOTA *****

CITY           SKY/WX    TMP DP  RH WIND       PRES   REMARKS
COOPERSTOWN    FAIR      72  50  46 SE18G25   29.60S
VALLEY CITY    CLOUDY    72  50  46 SE14G20   29.62S
OAKES          NOT AVBL
GWINNER        CLOUDY    72  52  49 SE13      29.61F
SHEYENNE NWR     N/A     71  49  46 SE10      29.95S
BUFFALO        NOT AVBL
WYNDMERE       NOT AVBL
 ***** THE ABOVE OBSERVATIONS ARE NON NWS ARE NOT QUALITY
       CONTROLLED AND MAY MIS-REPORT RAIN FOR SNOW...
$$

  *****  WEATHER ACROSS NORTHERN MINNESOTA  *****

CITY           SKY/WX    TMP DP  RH WIND       PRES   REMARKS
FLAG ISLAND    FAIR      66  54  63 SE9       29.69F
WARROAD        FAIR      64  52  63 SE7       29.71S
ROSEAU         CLOUDY    64  52  63 SE7       29.69S
HALLOCK        FAIR      64  50  59 SE9       29.62S
THF RVR FALLS  MOCLDY    68  47  46 SE10      29.69F
HALSTAD          N/A     67  50  54 SE10        N/A
FOSSTON        MOCLDY    64  46  52 SE7       29.71F
BAUDETTE       FAIR      62  49  62 SE7       29.73S
WASKISH        FAIR      61  52  72 CALM      29.74F
CROOKSTON      FAIR      66  48  52 SE15      29.65S
$$
  *****  WEATHER ACROSS CENTRAL AND WEST MINNESOTA  *****

CITY           SKY/WX    TMP DP  RH WIND       PRES   REMARKS
BEMIDJI        FAIR      63  47  55 S6        29.75S
PARK RAPIDS    LGT RAIN  64  49  57 VRB3      29.76S
WADENA         CLOUDY    63  52  67 E9        29.76R
DETROIT LAKES  FAIR      64  50  59 SE16      29.73S
MOORHEAD       MOCLDY    70  48  46 SE14      29.66R
FERGUS FALLS   CLOUDY    66  54  63 SE9       29.68R
ELBOW LAKE     CLOUDY    69  47  45 S17G23    29.71R
MORRIS MN      MOCLDY    72  46  40 S21       29.72R
STAPLES        FAIR      64  48  55 SE5       29.78S
WHEATON        MOCLDY    72  45  37 SE16G22   29.69R
$$
  *****  WEATHER ELSEWHERE ACROSS MINNESOTA  *****

CITY           SKY/WX    TMP DP  RH WIND       PRES   REMARKS
DULUTH         FAIR      62  46  55 S5        29.84S
INTRNTL FALLS  FAIR      59  46  62 CALM      29.76R
ELY            FAIR      63  46  55 S3        29.83R
CLOQUET        FAIR      57  43  58 CALM      29.85R
BRAINERD       FAIR      63  46  54 VRB5      29.79S
HIBBING        FAIR      51  46  83 CALM      29.82S
ALEXANDRIA     FAIR      61  53  75 E9        29.75R
SAINT CLOUD    LGT RAIN  62  54  74 S7        29.78S
MINNEAPOLIS    MOCLDY    71  44  37 SE10G23   29.81F
$$

  *****  WEATHER ACROSS SOUTH DAKOTA  *****

CITY           SKY/WX    TMP DP  RH WIND       PRES   REMARKS
SIOUX FALLS    CLOUDY    74  63  68 S18G25    29.71R
BROOKINGS      NOT AVBL
WATERTOWN      FAIR      72  57  59 SE14G24   29.68F
HURON          MOCLDY    79  65  62 S13G21    29.62S THUNDER
SISSETON         N/A     73  50  44 SE15      29.65R
ABERDEEN       FAIR      76  59  55 SE24G32   29.55F
MITCHELL       MOCLDY    80  65  59 S18G29    29.65S
PIERRE         LGT RAIN  70  59  68 NW13G22   29.56F
MOBRIDGE       FAIR      78  55  44 SW20G36   29.45F
RAPID CITY     FAIR      67  53  61 NW16      29.69S
$$

  *****  SOME WEATHER IN NEARBY STATES *****

CITY           SKY/WX    TMP DP  RH WIND       PRES   REMARKS
GLASGOW MT     FAIR      73  44  35 N13       29.69R
GREAT FALLS MT FAIR      68  47  46 SE7       29.76S
CHEYENNE WY    FAIR      68  38  33 NW14G26   29.91F
SCOTTSBLUFF NE FAIR      72  49  44 N10       29.75F
OMAHA NE       CLOUDY    77  65  66 SE21      29.78S
DES MOINES IA  CLOUDY    74  56  53 SE12      29.89R
DAVENPORT IA   NOT AVBL
CHICAGO IL     FAIR      69  45  41 S8        30.03R
EAU CLAIRE WI  FAIR      64  47  53 S7        29.90R
LA CROSSE WI   FAIR      71  48  43 S3        29.93R
$$

  *****  SOME NATIONAL WEATHER *****

CITY           SKY/WX    TMP DP  RH WIND       PRES   REMARKS
LA GUARDIA NY  FAIR      70  54  56 N8        29.99R
RALEIGH NC     FAIR      64  57  78 CALM      30.10R
ATLANTA GA     FAIR      75  53  46 N8        30.09R
NEW ORLEANS LA CLOUDY    76  69  79 CALM      30.00R
OKLAHOMA CITY  FAIR      81  67  62 S17G29    29.92R
ALBUQUERQUE NM FAIR      80  41  24 S21G33    29.96S
SALT LAKE CITY FAIR      84  33  16 N5        29.84F
LOS ANGELES CA FAIR      66  59  78 W13       29.84S
BOISE ID       FAIR      85  40  20 NE5       29.76F
SEATTLE WA     FAIR      70  49  47 CALM      29.97S
$$

*** WEATHER ACROSS MANITOBA...SASKATCHEWAN AND ONTARIO ***
                ***ONTARIO***

CITY           SKY/WX    TMP DP  RH WIND       PRES   REMARKS
GERALDTON      PTCLDY    61  48  63 S8        29.77R
THUNDER BAY    MOCLDY    61  48  63 W2        29.80R
SIOUX LOOKOUT  PTCLDY    54  48  82 S3        29.75S
TORONTO        PTCLDY    59  46  63 W5        30.01R
BIG TROUT LK   PTCLDY    50  46  87 N8        29.78R
PICKLE LAKE    NOT AVBL
DRYDEN         MOCLDY    64  48  55 S7        29.76R
KENORA         MOCLDY    66  48  52 S8        29.73S
$$
                *** MANITOBA***

CITY           SKY/WX    TMP DP  RH WIND       PRES   REMARKS
BRANDON        CLOUDY    70  61  73 SE7       29.53S
DAUPHIN        LGT RAIN  68  61  77 SE7       29.51R
ISLAND LAKE    PTCLDY    55  46  71 NE13G21   29.77R
PILOT MOUND      N/A     66  54  63 E8          N/A
THE PAS        LGT RAIN  64  50  59 E13G22    29.55S
THOMPSON       MOCLDY    54  41  62 E13G21    29.80R
WINNIPEG       MOCLDY    70  48  46 SE15G21   29.60S
LYNN LAKE      CLEAR     57  39  51 E17G25    29.75R
CHURCHILL      FOG       41  41 100 E9        30.01R VSB 1/2
GILLAM         PTCLDY    50  36  57 NE13G18   29.89R
$$
                ***SASKATCHEWAN***

CITY           SKY/WX    TMP DP  RH WIND       PRES   REMARKS
ESTEVAN        MOCLDY    64  57  77 NW6       29.61R
KINDERSLEY     PTCLDY    63  43  48 NW5       29.71R
LLOYDMINSTER   PTCLDY    59  46  63 W13G18    29.68R
PRINCE ALBERT  PTCLDY    64  55  72 N6        29.54S
REGINA         PTCLDY    63  55  77 W10       29.63R
YORKTON        CLOUDY    66  59  77 W5        29.54R


USA.gov is the U.S. government's official web portal to all federal, state and local government web resources and services.